• In Portugal
  • List of Countries
  • For 7 days
  • Water Temperature
  • Satellite Maps
  • Weather Map
  • Weather Widgets
  • user-avatar
    Login

    Hourly Weather Mariental

    Today, 21 February, Wednesday

    Time Temperature Precipitation Wind Pressure Humidity
    00:00 +31°C° 0 mm 3 mps 667 mmHg 15%
    01:00 +31°C° 0 mm 3 mps 667 mmHg 15%
    02:00 +30°C° 0 mm 3 mps 667 mmHg 17%
    03:00 +29°C° 0 mm 3 mps 667 mmHg 18%
    04:00 +28°C° 0 mm 3 mps 667 mmHg 19%
    05:00 +28°C° 0 mm 3 mps 667 mmHg 19%
    06:00 +29°C° 0 mm 3 mps 667 mmHg 19%
    07:00 +29°C° 0 mm 4 mps 667 mmHg 19%
    08:00 +32°C° 0 mm 4 mps 668 mmHg 17%
    09:00 +34°C° 0 mm 4 mps 668 mmHg 14%
    10:00 +36°C° 0 mm 4 mps 668 mmHg 11%
    11:00 +37°C° 0 mm 3 mps 668 mmHg 11%
    12:00 +38°C° 0 mm 3 mps 668 mmHg 10%
    13:00 +38°C° 0 mm 2 mps 667 mmHg 9%
    14:00 +39°C° 0 mm 2 mps 667 mmHg 9%
    15:00 +39°C° 0 mm 3 mps 666 mmHg 8%
    16:00 +39°C° 0 mm 3 mps 665 mmHg 8%
    17:00 +38°C° 0 mm 3 mps 665 mmHg 8%
    18:00 +37°C° 0 mm 4 mps 665 mmHg 9%
    19:00 +36°C° 0 mm 4 mps 665 mmHg 10%
    20:00 +35°C° 0 mm 4 mps 665 mmHg 10%
    21:00 +34°C° 0 mm 4 mps 666 mmHg 11%
    22:00 +34°C° 0 mm 4 mps 666 mmHg 11%
    23:00 +33°C° 0 mm 4 mps 666 mmHg 12%

    Tomorrow, 22 February, Thursday

    Time Temperature Precipitation Wind Pressure Humidity
    00:00 +32°C° 0 mm 4 mps 665 mmHg 13%
    01:00 +30°C° 0 mm 3 mps 665 mmHg 14%
    02:00 +29°C° 0 mm 3 mps 665 mmHg 17%
    03:00 +29°C° 0 mm 2 mps 664 mmHg 20%
    04:00 +28°C° 0 mm 2 mps 664 mmHg 23%
    05:00 +28°C° 0 mm 2 mps 664 mmHg 23%
    06:00 +29°C° 0 mm 2 mps 665 mmHg 23%
    07:00 +30°C° 0 mm 2 mps 665 mmHg 23%
    08:00 +32°C° 0 mm 2 mps 666 mmHg 22%
    09:00 +34°C° 0 mm 2 mps 666 mmHg 21%
    10:00 +36°C° 0 mm 2 mps 666 mmHg 20%
    11:00 +37°C° 0 mm 2 mps 666 mmHg 18%
    12:00 +37°C° 0 mm 2 mps 665 mmHg 16%
    13:00 +38°C° 0 mm 3 mps 665 mmHg 15%
    14:00 +38°C° 0 mm 3 mps 665 mmHg 15%
    15:00 +38°C° 0 mm 3 mps 664 mmHg 15%
    16:00 +38°C° 0 mm 3 mps 664 mmHg 16%
    17:00 +37°C° 0 mm 3 mps 664 mmHg 17%
    18:00 +36°C° 0 mm 4 mps 664 mmHg 19%
    19:00 +36°C° 0 mm 4 mps 664 mmHg 21%
    20:00 +34°C° 0.1 mm 5 mps 664 mmHg 25%
    21:00 +33°C° 0.1 mm 6 mps 665 mmHg 28%
    22:00 +32°C° 0.1 mm 6 mps 665 mmHg 32%
    23:00 +30°C° 0 mm 6 mps 665 mmHg 35%

    Day after tomorrow, 23 February, Friday

    Time Temperature Precipitation Wind Pressure Humidity
    00:00 +30°C° 0 mm 5 mps 664 mmHg 38%
    01:00 +29°C° 0 mm 5 mps 664 mmHg 40%
    02:00 +29°C° 0 mm 5 mps 664 mmHg 45%
    03:00 +28°C° 0 mm 4 mps 664 mmHg 49%
    04:00 +27°C° 0 mm 4 mps 663 mmHg 53%
    05:00 +27°C° 0 mm 5 mps 664 mmHg 55%
    06:00 +27°C° 0 mm 5 mps 664 mmHg 57%
    07:00 +26°C° 0 mm 6 mps 664 mmHg 59%
    08:00 +28°C° 0 mm 5 mps 665 mmHg 51%
    09:00 +30°C° 0 mm 5 mps 665 mmHg 44%
    10:00 +33°C° 0 mm 4 mps 665 mmHg 36%
    11:00 +34°C° 0 mm 3 mps 665 mmHg 31%
    12:00 +35°C° 0 mm 2 mps 664 mmHg 27%
    13:00 +36°C° 0 mm 1 mps 664 mmHg 23%
    14:00 +36°C° 0 mm 2 mps 663 mmHg 23%
    15:00 +36°C° 0 mm 2 mps 663 mmHg 23%
    16:00 +36°C° 0 mm 2 mps 663 mmHg 23%
    17:00 +35°C° 0 mm 4 mps 663 mmHg 27%
    18:00 +33°C° 0 mm 6 mps 663 mmHg 31%
    19:00 +32°C° 0 mm 8 mps 663 mmHg 36%
    20:00 +30°C° 0.1 mm 7 mps 663 mmHg 37%
    21:00 +30°C° 0.1 mm 6 mps 664 mmHg 38%
    22:00 +29°C° 0.1 mm 6 mps 664 mmHg 40%
    23:00 +28°C° 0 mm 4 mps 664 mmHg 42%

    24 February, Saturday

    Time Temperature Precipitation Wind Pressure Humidity
    00:00 +27°C° 0 mm 3 mps 664 mmHg 45%
    01:00 +27°C° 0 mm 2 mps 664 mmHg 48%
    02:00 +26°C° 0 mm 2 mps 663 mmHg 49%
    03:00 +26°C° 0 mm 2 mps 663 mmHg 50%
    04:00 +26°C° 0 mm 2 mps 663 mmHg 51%
    05:00 +26°C° 0 mm 3 mps 664 mmHg 49%
    06:00 +26°C° 0 mm 4 mps 664 mmHg 47%
    07:00 +26°C° 0 mm 5 mps 665 mmHg 45%
    08:00 +27°C° 0 mm 5 mps 665 mmHg 41%
    09:00 +29°C° 0 mm 4 mps 665 mmHg 37%
    10:00 +30°C° 0 mm 4 mps 666 mmHg 33%
    11:00 +32°C° 0 mm 4 mps 665 mmHg 29%
    12:00 +33°C° 0 mm 3 mps 665 mmHg 26%
    13:00 +34°C° 0 mm 3 mps 664 mmHg 22%
    14:00 +35°C° 0 mm 4 mps 664 mmHg 20%
    15:00 +35°C° 0 mm 4 mps 664 mmHg 18%
    16:00 +36°C° 0 mm 4 mps 664 mmHg 16%
    17:00 +35°C° 0 mm 5 mps 664 mmHg 16%
    18:00 +34°C° 0 mm 6 mps 664 mmHg 17%
    19:00 +32°C° 0 mm 6 mps 665 mmHg 17%
    20:00 +30°C° 0 mm 7 mps 665 mmHg 20%
    21:00 +29°C° 0 mm 8 mps 666 mmHg 22%
    22:00 +27°C° 0 mm 8 mps 666 mmHg 25%
    23:00 +24°C° 0 mm 8 mps 666 mmHg 32%

    25 February, Sunday

    Time Temperature Precipitation Wind Pressure Humidity
    00:00 +23°C° 0 mm 8 mps 665 mmHg 39%
    01:00 +21°C° 0 mm 8 mps 665 mmHg 46%
    02:00 +21°C° 0 mm 7 mps 665 mmHg 45%
    03:00 +20°C° 0 mm 6 mps 665 mmHg 44%
    04:00 +20°C° 0 mm 6 mps 665 mmHg 44%
    05:00 +19°C° 0 mm 6 mps 666 mmHg 43%
    06:00 +19°C° 0 mm 5 mps 667 mmHg 42%
    07:00 +19°C° 0 mm 5 mps 667 mmHg 41%
    08:00 +21°C° 0 mm 5 mps 667 mmHg 37%
    09:00 +22°C° 0 mm 5 mps 668 mmHg 33%
    10:00 +25°C° 0 mm 5 mps 668 mmHg 30%
    11:00 +26°C° 0 mm 4 mps 667 mmHg 27%
    12:00 +28°C° 0 mm 4 mps 667 mmHg 24%
    13:00 +29°C° 0 mm 4 mps 667 mmHg 22%
    14:00 +30°C° 0 mm 4 mps 666 mmHg 20%
    15:00 +30°C° 0 mm 4 mps 666 mmHg 18%
    16:00 +32°C° 0 mm 4 mps 666 mmHg 16%
    17:00 +30°C° 0 mm 4 mps 666 mmHg 16%
    18:00 +29°C° 0 mm 5 mps 666 mmHg 16%
    19:00 +28°C° 0 mm 5 mps 666 mmHg 16%
    20:00 +27°C° 0 mm 6 mps 666 mmHg 15%
    21:00 +26°C° 0 mm 6 mps 666 mmHg 13%
    22:00 +24°C° 0 mm 6 mps 667 mmHg 11%
    23:00 +23°C° 0 mm 6 mps 666 mmHg 13%

    26 February, Monday

    Time Temperature Precipitation Wind Pressure Humidity
    00:00 +23°C° 0 mm 6 mps 666 mmHg 16%
    01:00 +22°C° 0 mm 5 mps 666 mmHg 18%
    02:00 +21°C° 0 mm 5 mps 666 mmHg 20%
    03:00 +21°C° 0 mm 4 mps 666 mmHg 22%
    04:00 +20°C° 0 mm 4 mps 666 mmHg 24%
    05:00 +21°C° 0 mm 4 mps 666 mmHg 22%
    06:00 +21°C° 0 mm 4 mps 667 mmHg 21%
    07:00 +22°C° 0 mm 4 mps 667 mmHg 19%
    08:00 +25°C° 0 mm 4 mps 668 mmHg 17%
    09:00 +26°C° 0 mm 4 mps 668 mmHg 15%
    10:00 +28°C° 0 mm 4 mps 668 mmHg 13%
    11:00 +30°C° 0 mm 3 mps 668 mmHg 12%
    12:00 +31°C° 0 mm 2 mps 668 mmHg 11%
    13:00 +32°C° 0 mm 2 mps 667 mmHg 10%
    14:00 +32°C° 0 mm 2 mps 667 mmHg 9%
    15:00 +34°C° 0 mm 2 mps 667 mmHg 8%
    16:00 +34°C° 0 mm 3 mps 666 mmHg 8%
    17:00 +33°C° 0 mm 3 mps 666 mmHg 8%
    18:00 +31°C° 0 mm 3 mps 667 mmHg 9%
    19:00 +30°C° 0 mm 4 mps 667 mmHg 10%
    20:00 +29°C° 0 mm 4 mps 667 mmHg 11%
    21:00 +28°C° 0 mm 4 mps 667 mmHg 12%
    22:00 +28°C° 0 mm 4 mps 667 mmHg 13%
    23:00 +27°C° 0 mm 4 mps 667 mmHg 14%
    Show more